Regional Weather Roundup
Issued by NWS Cleveland, OH

Home | Current Version | Previous Version | Text Only | Print | Product List | Glossary Off
Versions: 1 2 3 4 5 6 7 8 9 10 11 12 13 14 15 16 17 18 19 20 21 22 23 24 25 26 27 28 29 30 31 32 33 34 35 36 37 38 39 40 41 42 43 44 45 46 47 48 49 50

000
ASUS41 KCLE 261610
RWRCLE
OHIO REGIONAL WEATHER ROUNDUP
NATIONAL WEATHER SERVICE WILMINGTON, OH
1200 PM EDT THU MAR 26 2015

NOTE: "FAIR" INDICATES FEW OR NO CLOUDS BELOW 12,000 FEET WITH NO
SIGNIFICANT WEATHER AND/OR OBSTRUCTIONS TO VISIBILITY.

OHZ001>008-015>018-024>027-034-035-043-044-261700-
   NORTHWEST OHIO

CITY           SKY/WX    TMP DP  RH WIND       PRES   REMARKS
DEFIANCE       CLOUDY    40  34  79 NW10      29.90F
FINDLAY        LGT RAIN  37  34  89 NW9       29.88R FOG
TOLEDO EXPRESS CLOUDY    36  34  93 NW5       29.88F FOG
TOLEDO EXEC    CLOUDY    35  33  92 W3        29.89F FOG
LIMA           LGT RAIN  39  37  92 NW9       29.88R FOG
$$

OHZ009>014-019>023-028>033-038-089-261700-
   NORTHEAST OHIO

CITY           SKY/WX    TMP DP  RH WIND       PRES   REMARKS
CLE-HOPKINS    LGT RAIN  37  35  92 N7        29.86F FOG
CLE-LAKEFRONT  FOG       35  33  92 N5        29.84F VSB 3/4
CUY CO. ARPT   LGT RAIN  37  37 100 NE7       29.84F FOG
LORAIN-ELYRIA  MIX PCPN  37  35  92 NE3       29.85F FOG
ASHTABULA      LGT RAIN  36  34  92 N5        29.83F FOG
AKRON-CANTON   LGT RAIN  43  39  86 N7        29.81F FOG
WOOSTER        LGT RAIN  40  38  93 N9        29.83R FOG
MANSFIELD      LGT RAIN  39  38  96 N6        29.83F FOG
YOUNGSTOWN     LGT RAIN  39  38  96 N5        29.80F FOG
$$

OHZ042-051>053-060>062-070>072-077>081-261700-
  SOUTHWEST OHIO

CITY           SKY/WX    TMP DP  RH WIND       PRES   REMARKS
CINC-COVINGTON LGT RAIN  44  44 100 N12       29.89R
CINC-LUNKEN    LGT RAIN  45  43  93 N10       29.91R
HAMILTON       LGT RAIN  45  45 100 NW10      29.91R
DAYTON         LGT RAIN  44  41  89 N12       29.88S
WRIGHT-PAT AFB LGT RAIN  44  42  95 NW8       29.87R
DAYTON GENERAL CLOUDY    43  41  93 N9        29.87R
WILMINGTON     LGT RAIN  44  41  89 N8        29.85S FOG
$$

OHZ036-037-039>041-045>050-054>059-063>069-073>076-082>088-261700-
  CENTRAL AND SOUTHEAST OHIO

CITY           SKY/WX    TMP DP  RH WIND       PRES   REMARKS
COLUMBUS       LGT RAIN  44  42  93 N9        29.84R FOG
OSU AIRPORT    CLOUDY    43  40  89 N7        29.84R
BOLTON FIELD   CLOUDY    43  41  93 N10       29.84S FOG
RICKENBACK AFB LGT RAIN  44  42  93 N9        29.83S
NEWARK         LGT RAIN  45  41  86 N8        29.82F FOG
MARION         CLOUDY    42  38  85 N8        29.86R FOG
LANCASTER      LGT RAIN  46  43  89 N9        29.83R FOG
ZANESVILLE     RAIN      44  41  89 N8        29.81S FOG
NEW PHILLY     LGT RAIN  46  41  82 N8        29.82R
$$



USA.gov is the U.S. government's official web portal to all federal, state and local government web resources and services.